Flag for Brazil Weather past 2 weeks in Itabuna, Bahia, Brazil

Now
84 °F

Passing clouds.


Feels Like: 87 °F
Forecast: 69 / 83 °F
Wind: 10 mph from Southeast

Location: Salvador Aeroporto

Current Time: May 27, 2015 at 11:26:46 AM

Latest Report: May 27, 2015 at 11:00 AM


Visibility: N/A

Pressure: 30.01 "Hg

Humidity: 58%

Dew point: 68 °F

Location of ItabunaLocation

Historic Weather in Itabuna — Graph

°F

Itabuna temperature yesterday

Maximum temperature yesterday: 84 °F (at 1:00 PM)
Minimum temperature yesterday: 73 °F (at 5:00 AM)
Average temperature yesterday: 78 °F

Past Weeks' High & Low Weather Summary

 TemperatureHumidityPressure
High86 °F (May 12, 12:00 PM)100% (May 15, 3:00 AM)30.09 "Hg (May 15, 3:00 AM)
Low37 °F (May 15, 5:00 AM)55% (May 23, 11:00 AM)29.86 "Hg (May 12, 3:00 PM)
Average78 °F76%30.00 "Hg
* Reported May 12 10:00 AM — May 27 10:00 AM, Itabuna, Weather by CustomWeather, © 2015

Note: Actual official high and low records may vary slightly from our data, if they occured in-between our weather recording intervals... More about our weather records

Advertising

Itabuna weather history for previous 24 hours

 ConditionsComfort  
Time TempWeatherWind HumidityBarometerVisibility
10:00 AM
Wed, May 27
84 °FPassing clouds.12 mph58%30.04 "HgN/A
9:00 AM84 °FPassing clouds.7 mph62%30.04 "HgN/A
8:00 AM82 °FPassing clouds.7 mph62%30.01 "HgN/A
7:00 AM79 °FScattered clouds.8 mph70%29.98 "HgN/A
6:00 AM77 °FScattered clouds.6 mph74%29.98 "HgN/A
5:00 AM77 °FPassing clouds.6 mph69%29.95 "HgN/A
4:00 AM79 °FPassing clouds.7 mph70%29.95 "HgN/A
3:00 AM79 °FPassing clouds.8 mph70%29.95 "HgN/A
2:00 AM77 °FPassing clouds.8 mph74%29.95 "HgN/A
1:00 AM77 °FPassing clouds.8 mph74%29.95 "HgN/A
12:00 AM79 °FPassing clouds.7 mph70%29.98 "HgN/A
11:00 PM
Tue, May 26
79 °FPassing clouds.10 mph74%29.98 "HgN/A
10:00 PM79 °FPassing clouds.10 mph74%29.98 "HgN/A
9:00 PM79 °FPassing clouds.7 mph74%30.01 "HgN/A
8:00 PM79 °FPassing clouds.10 mph74%29.98 "HgN/A
7:00 PM79 °FPassing clouds.10 mph74%29.98 "HgN/A
6:00 PM81 °FPassing clouds.9 mph70%29.95 "HgN/A
5:00 PM79 °FScattered clouds.6 mph79%29.95 "HgN/A
4:00 PM81 °FBroken clouds.8 mph74%29.95 "Hg6 mi
3:00 PM81 °FScattered showers. Broken clouds.12 mph74%N/A5 mi
2:00 PM81 °FScattered clouds.7 mph74%29.95 "HgN/A
1:00 PM84 °FScattered clouds.8 mph70%29.95 "HgN/A
12:00 PM82 °FScattered showers. Scattered clouds.6 mph74%N/AN/A
11:00 AM81 °FScattered clouds.3 mph79%30.01 "HgN/A
Weather by CustomWeather, © 2015

See weather overviewHow to use our weather pages